• In Uzbekistan
  • List of Countries
  • For 7 days
  • Water Temperature
  • Satellite Maps
  • Weather Map
  • Weather Widgets
  • user-avatar
    Login

    Hourly Weather Sokoliki

    Today, 26 September, Wednesday

    Time Temperature Precipitation Wind Pressure Humidity
    00:00 +1°C° 0 mm 2 mps 713 mmHg 79%
    01:00 -1°C° 0 mm 2 mps 713 mmHg 81%
    02:00 0°C° 0 mm 1 mps 713 mmHg 86%
    03:00 0°C° 0 mm 1 mps 713 mmHg 86%
    04:00 0°C° 0 mm 1 mps 714 mmHg 87%
    05:00 0°C° 0 mm 1 mps 714 mmHg 88%
    06:00 +1°C° 0 mm 1 mps 714 mmHg 84%
    07:00 +2°C° 0 mm 1 mps 714 mmHg 79%
    08:00 +3°C° 0 mm 1 mps 715 mmHg 74%
    09:00 +5°C° 0 mm 1 mps 715 mmHg 64%
    10:00 +6°C° 0 mm 2 mps 715 mmHg 54%
    11:00 +8°C° 0 mm 2 mps 715 mmHg 43%
    12:00 +9°C° 0 mm 2 mps 715 mmHg 40%
    13:00 +11°C° 0 mm 1 mps 715 mmHg 37%
    14:00 +12°C° 0 mm 1 mps 715 mmHg 34%
    15:00 +12°C° 0 mm 1 mps 714 mmHg 39%
    16:00 +11°C° 0 mm 1 mps 713 mmHg 43%
    17:00 +10°C° 0 mm 1 mps 713 mmHg 48%
    18:00 +9°C° 0 mm 1 mps 713 mmHg 51%
    19:00 +6°C° 0 mm 2 mps 712 mmHg 53%
    20:00 +5°C° 0 mm 2 mps 712 mmHg 56%
    21:00 +5°C° 0 mm 2 mps 712 mmHg 56%
    22:00 +5°C° 0 mm 2 mps 712 mmHg 55%
    23:00 +5°C° 0 mm 2 mps 712 mmHg 55%

    Tomorrow, 27 September, Thursday

    Time Temperature Precipitation Wind Pressure Humidity
    00:00 +4°C° 0 mm 3 mps 712 mmHg 55%
    01:00 +4°C° 0 mm 3 mps 711 mmHg 55%
    02:00 +4°C° 0 mm 3 mps 711 mmHg 55%
    03:00 +4°C° 0 mm 3 mps 711 mmHg 54%
    04:00 +4°C° 0 mm 3 mps 710 mmHg 53%
    05:00 +4°C° 0 mm 3 mps 710 mmHg 52%
    06:00 +4°C° 0 mm 3 mps 710 mmHg 53%
    07:00 +5°C° 0 mm 3 mps 710 mmHg 53%
    08:00 +5°C° 0 mm 3 mps 710 mmHg 54%
    09:00 +5°C° 0 mm 3 mps 710 mmHg 54%
    10:00 +7°C° 0 mm 3 mps 710 mmHg 54%
    11:00 +7°C° 0 mm 3 mps 710 mmHg 54%
    12:00 +8°C° 0 mm 3 mps 710 mmHg 54%
    13:00 +8°C° 0 mm 3 mps 710 mmHg 54%
    14:00 +9°C° 0 mm 3 mps 710 mmHg 54%
    15:00 +9°C° 0 mm 3 mps 709 mmHg 55%
    16:00 +9°C° 0 mm 3 mps 709 mmHg 55%
    17:00 +9°C° 0 mm 2 mps 709 mmHg 56%
    18:00 +8°C° 0 mm 2 mps 708 mmHg 60%
    19:00 +7°C° 0 mm 2 mps 708 mmHg 64%
    20:00 +5°C° 0 mm 2 mps 708 mmHg 67%
    21:00 +5°C° 0 mm 2 mps 708 mmHg 68%
    22:00 +5°C° 0 mm 2 mps 708 mmHg 68%
    23:00 +5°C° 0 mm 2 mps 708 mmHg 69%

    Day after tomorrow, 28 September, Friday

    Time Temperature Precipitation Wind Pressure Humidity
    00:00 +5°C° 0 mm 2 mps 707 mmHg 69%
    01:00 +5°C° 0 mm 2 mps 707 mmHg 70%
    02:00 +5°C° 0 mm 2 mps 706 mmHg 71%
    03:00 +5°C° 0 mm 2 mps 706 mmHg 72%
    04:00 +5°C° 0 mm 2 mps 705 mmHg 72%
    05:00 +5°C° 0 mm 2 mps 705 mmHg 72%
    06:00 +6°C° 0 mm 2 mps 705 mmHg 69%
    07:00 +7°C° 0 mm 2 mps 705 mmHg 66%
    08:00 +8°C° 0 mm 3 mps 704 mmHg 63%
    09:00 +10°C° 0 mm 3 mps 704 mmHg 57%
    10:00 +12°C° 0 mm 3 mps 705 mmHg 52%
    11:00 +14°C° 0 mm 4 mps 705 mmHg 46%
    12:00 +16°C° 0 mm 3 mps 704 mmHg 46%
    13:00 +16°C° 0 mm 3 mps 704 mmHg 46%
    14:00 +17°C° 0 mm 3 mps 703 mmHg 45%
    15:00 +16°C° 0 mm 2 mps 703 mmHg 50%
    16:00 +16°C° 0 mm 2 mps 702 mmHg 54%
    17:00 +15°C° 0 mm 2 mps 702 mmHg 59%
    18:00 +14°C° 0 mm 1 mps 702 mmHg 61%
    19:00 +12°C° 0 mm 1 mps 702 mmHg 64%
    20:00 +11°C° 0 mm 1 mps 702 mmHg 66%
    21:00 +11°C° 0 mm 1 mps 702 mmHg 69%
    22:00 +10°C° 0 mm 1 mps 702 mmHg 71%
    23:00 +10°C° 0 mm 1 mps 703 mmHg 73%

    29 September, Saturday

    Time Temperature Precipitation Wind Pressure Humidity
    00:00 +10°C° 0.1 mm 1 mps 703 mmHg 77%
    01:00 +10°C° 0.1 mm 1 mps 703 mmHg 81%
    02:00 +10°C° 0.1 mm 1 mps 702 mmHg 86%
    03:00 +10°C° 0.3 mm 1 mps 702 mmHg 88%
    04:00 +8°C° 0.3 mm 2 mps 702 mmHg 90%
    05:00 +8°C° 0.3 mm 2 mps 702 mmHg 92%
    06:00 +8°C° 0.8 mm 2 mps 702 mmHg 92%
    07:00 +8°C° 0.8 mm 3 mps 703 mmHg 92%
    08:00 +7°C° 0.8 mm 3 mps 703 mmHg 92%
    09:00 +7°C° 1 mm 3 mps 703 mmHg 91%
    10:00 +7°C° 1 mm 3 mps 704 mmHg 90%
    11:00 +5°C° 1 mm 3 mps 704 mmHg 90%
    12:00 +6°C° 0.5 mm 4 mps 704 mmHg 88%
    13:00 +6°C° 0.5 mm 4 mps 704 mmHg 87%
    14:00 +6°C° 0.5 mm 4 mps 705 mmHg 85%
    15:00 +6°C° 0.2 mm 4 mps 705 mmHg 83%
    16:00 +6°C° 0.2 mm 4 mps 705 mmHg 82%
    17:00 +6°C° 0.2 mm 4 mps 705 mmHg 80%
    18:00 +5°C° 0 mm 4 mps 706 mmHg 80%
    19:00 +4°C° 0 mm 4 mps 706 mmHg 80%
    20:00 +3°C° 0 mm 4 mps 706 mmHg 79%
    21:00 +3°C° 0 mm 3 mps 707 mmHg 79%
    22:00 +2°C° 0 mm 3 mps 707 mmHg 79%
    23:00 +2°C° 0 mm 3 mps 707 mmHg 79%

    30 September, Sunday

    Time Temperature Precipitation Wind Pressure Humidity
    00:00 +2°C° 0 mm 3 mps 707 mmHg 80%
    01:00 +1°C° 0 mm 3 mps 707 mmHg 81%
    02:00 +2°C° 0 mm 2 mps 707 mmHg 82%
    03:00 +1°C° 0 mm 2 mps 707 mmHg 83%
    04:00 +1°C° 0 mm 2 mps 707 mmHg 84%
    05:00 +1°C° 0 mm 2 mps 707 mmHg 85%
    06:00 +1°C° 0 mm 2 mps 707 mmHg 83%
    07:00 +2°C° 0 mm 2 mps 708 mmHg 80%
    08:00 +3°C° 0 mm 2 mps 708 mmHg 77%
    09:00 +5°C° 0 mm 2 mps 708 mmHg 69%
    10:00 +7°C° 0 mm 3 mps 708 mmHg 61%
    11:00 +9°C° 0 mm 3 mps 708 mmHg 53%
    12:00 +10°C° 0 mm 3 mps 708 mmHg 52%
    13:00 +12°C° 0 mm 2 mps 707 mmHg 50%
    14:00 +13°C° 0 mm 2 mps 707 mmHg 48%
    15:00 +13°C° 0 mm 2 mps 707 mmHg 53%
    16:00 +12°C° 0 mm 2 mps 706 mmHg 57%
    17:00 +10°C° 0 mm 2 mps 706 mmHg 62%
    18:00 +8°C° 0 mm 2 mps 706 mmHg 69%
    19:00 +8°C° 0 mm 1 mps 705 mmHg 76%
    20:00 +6°C° 0 mm 1 mps 705 mmHg 83%
    21:00 +5°C° 0 mm 1 mps 705 mmHg 83%
    22:00 +5°C° 0 mm 1 mps 704 mmHg 84%
    23:00 +5°C° 0 mm 1 mps 704 mmHg 84%

    1 October, Monday

    Time Temperature Precipitation Wind Pressure Humidity
    00:00 +5°C° 0 mm 1 mps 704 mmHg 83%
    01:00 +5°C° 0 mm 1 mps 703 mmHg 82%
    02:00 +5°C° 0 mm 1 mps 703 mmHg 80%
    03:00 +5°C° 0 mm 1 mps 703 mmHg 80%
    04:00 +5°C° 0 mm 1 mps 702 mmHg 80%
    05:00 +5°C° 0 mm 1 mps 702 mmHg 80%
    06:00 +6°C° 0 mm 1 mps 702 mmHg 78%
    07:00 +7°C° 0 mm 1 mps 702 mmHg 76%
    08:00 +8°C° 0 mm 1 mps 702 mmHg 73%
    09:00 +10°C° 0 mm 1 mps 702 mmHg 67%
    10:00 +13°C° 0 mm 1 mps 702 mmHg 60%
    11:00 +15°C° 0 mm 2 mps 702 mmHg 53%
    12:00 +16°C° 0 mm 2 mps 701 mmHg 52%
    13:00 +16°C° 0 mm 2 mps 701 mmHg 51%
    14:00 +17°C° 0 mm 2 mps 700 mmHg 50%
    15:00 +16°C° 0 mm 2 mps 700 mmHg 55%
    16:00 +15°C° 0 mm 1 mps 699 mmHg 61%
    17:00 +13°C° 0 mm 1 mps 699 mmHg 67%
    18:00 +12°C° 0.1 mm 1 mps 699 mmHg 71%
    19:00 +11°C° 0.1 mm 1 mps 699 mmHg 76%
    20:00 +10°C° 0.1 mm 1 mps 699 mmHg 80%
    21:00 +10°C° 0.2 mm 1 mps 699 mmHg 83%
    22:00 +10°C° 0.2 mm 1 mps 699 mmHg 86%
    23:00 +9°C° 0.2 mm 1 mps 699 mmHg 88%
    Show more